Location: ????????
(55.0097°N, 38.5678°E)
Time: 01:00:49
(UTC+00:00)

NOSS 3-1 (C) - Pass Details

Date: 18 December 2025
Orbit: 618 x 1583 km, 63.4° (Epoch: 10 January)

Event Time Altitude Azimuth Distance (km) Brightness Sun altitude
Rises 17:08:01 0° 226° (SW) 3,000 6.5 -34.0°
Reaches altitude 10° 17:10:08 10° 226° (SW) 2,159 5.7 -34.3°
Enters shadow 17:11:19 18° 225° (SW) 1,709 5.1 -34.5°
